Location: Newark
(21.1200°N, 73.4000°E)
Time: 02:48:48
(UTC+00:00)

Tiros 1 despin weight - All Passes

Search period start: 27 January 2020 00:00
Search period end: 06 February 2020 00:00
Orbit: 594 x 642 km, 48.2° (Epoch: 26 January)

Date Brightness Start Highest point End Pass type
(mag) Time Alt. Az. Time Alt. Az. Time Alt. Az.
27 Jan - 03:34:45 10° SSW 03:39:05 58° SE 03:43:28 10° NE daylight
27 Jan - 05:18:07 10° WNW 05:20:50 16° NW 05:23:35 10° N daylight
27 Jan - 12:11:17 10° NNW 12:15:23 30° NE 12:19:30 10° ESE daylight
27 Jan - 13:52:50 10° WNW 13:56:51 28° SW 14:00:51 10° S visible
28 Jan - 02:12:20 10° SSE 02:14:24 13° SE 02:16:29 10° E daylight
28 Jan - 03:51:16 10° WSW 03:55:35 54° NW 03:59:58 10° NNE daylight
28 Jan - 12:27:22 10° NW 12:32:01 69° NE 12:36:40 10° SE daylight
28 Jan - 14:11:40 10° WSW 14:13:11 11° SW 14:14:43 10° SW visible
29 Jan - 02:26:47 10° SSW 02:30:45 33° SE 02:34:44 10° ENE daylight
29 Jan - 04:08:41 10° W 04:12:15 24° NW 04:15:52 10° NNE daylight
29 Jan - 11:03:26 10° N 11:06:49 20° NE 11:10:13 10° E daylight
29 Jan - 12:44:00 10° WNW 12:48:30 48° SW 12:52:59 10° SSE daylight
30 Jan - 02:42:46 10° SW 02:47:11 88° SE 02:51:38 10° NE daylight
30 Jan - 04:27:36 10° NW 04:29:07 11° NW 04:30:39 10° NNW daylight
30 Jan - 11:19:08 10° NNW 11:23:32 41° NE 11:27:57 10° ESE daylight
30 Jan - 13:01:30 10° W 13:04:52 20° SW 13:08:14 10° S daylight
31 Jan - 01:19:16 10° S 01:22:26 19° SE 01:25:37 10° E visible
31 Jan - 02:59:39 10° WSW 03:03:44 37° NW 03:07:53 10° NNE daylight
31 Jan - 09:56:00 10° N 09:58:10 13° NE 10:00:21 10° ENE daylight
31 Jan - 11:35:26 10° NW 11:40:05 82° SW 11:44:46 10° SE daylight
01 Feb - 01:34:34 10° SSW 01:38:48 50° SE 01:43:05 10° NE daylight
01 Feb - 03:17:32 10° W 03:20:30 17° NW 03:23:28 10° N daylight
01 Feb - 10:11:07 10° NNW 10:15:00 26° NE 10:18:56 10° E daylight
01 Feb - 11:52:22 10° WNW 11:56:31 33° SW 12:00:42 10° SSE daylight
02 Feb - 00:12:54 10° SE 00:14:09 11° SE 00:15:25 10° ESE visible
02 Feb - 01:50:57 10° SW 01:55:18 63° NW 01:59:41 10° NE daylight
02 Feb - 10:27:05 10° NW 10:31:39 59° NE 10:36:15 10° SE daylight
02 Feb - 12:10:38 10° W 12:12:53 13° SW 12:15:07 10° SSW daylight
03 Feb - 00:26:42 10° S 00:30:29 28° SE 00:34:17 10° ENE visible
03 Feb - 02:08:13 10° W 02:11:56 26° NW 02:15:40 10° NNE daylight
03 Feb - 09:03:21 10° N 09:06:25 17° NE 09:09:31 10° E daylight
03 Feb - 10:43:37 10° NW 10:48:09 56° SW 10:52:42 10° SSE daylight
04 Feb - 00:42:31 10° SW 00:46:54 76° SE 00:51:18 10° NE visible
04 Feb - 02:26:46 10° WNW 02:28:45 13° NW 02:30:46 10° N daylight
04 Feb - 09:18:55 10° NNW 09:23:09 36° NE 09:27:27 10° ESE daylight
04 Feb - 11:00:56 10° WNW 11:04:33 22° SW 11:08:11 10° S daylight
04 Feb - 23:19:22 10° SSE 23:22:11 17° SE 23:25:01 10° E visible
05 Feb - 00:59:16 10° WSW 01:03:27 42° NW 01:07:39 10° NNE visible
05 Feb - 07:56:14 10° NNE 07:57:46 11° NE 07:59:18 10° NE daylight
05 Feb - 09:35:08 10° NW 09:39:44 86° NE 09:44:24 10° SE daylight
05 Feb - 23:34:24 10° SSW 23:38:33 42° SE 23:42:43 10° ENE visible
